[[{"header":{"parameterUnit":"m.s-1","parameterCategory":1,"la1":30.2991,"la2":30.254,"lo1":-89.0895,"lo2":-89.0444,"dy":0.0017,"dx":0.0017,"nx":28,"ny":28,"refTime":"2024-03-31T21:00:00:Z","depth":0,"parameterNumber":2,"parameterNumberName":"U-component_of_WINDS"},"data":[0,0,0,0,0,0,0,0,0,0,0,0,0,0,0,0,0,0,0,0,0,0,0,0,0,0,0,0,0,0,0,0,0,0,0,0,0,0,0,0,0,0,0,0,0,0,0,0,0,0,0,0,0,0,0,0,0,0,-3.1279,-3.1279,0,-3.1313,-3.1313,-3.1314,-3.1283,-3.1282,-3.1281,-3.128,-3.1311,-3.1313,-3.1315,0,0,0,0,0,0,0,0,0,0,0,0,0,-3.1186,-3.1188,-3.1279,-3.1279,-3.128,-3.1313,-3.1313,-3.1314,-3.1284,-3.1282,-3.1281,-3.1279,-3.1311,-3.1313,-3.1315,0,0,0,0,0,0,0,0,0,0,0,0,0,-3.1224,-3.1188,-3.1279,-3.1269,-3.1268,-3.1313,-3.1313,-3.1314,-3.1284,-3.1282,-3.128,-3.1279,-3.131,-3.1313,-3.1316,-3.1371,0,0,-3.1325,-3.1326,0,0,0,0,0,0,0,0,-3.1221,-3.1227,-3.127,-3.127,-3.1269,-3.1292,-3.1292,-3.1333,-3.1284,-3.1278,-3.128,-3.1278,-3.1306,-3.1309,-3.1319,-3.1372,-3.1373,-3.1325,-3.1327,-3.1328,-3.1329,0,0,0,0,0,0,0,-3.1219,-3.1225,-3.1292,-3.1271,-3.127,-3.1262,-3.1265,-3.1299,-3.1302,-3.1278,-3.1276,-3.1281,-3.1305,-3.1317,-3.132,-3.1374,-3.1325,-3.1327,-3.1329,-3.133,-3.1473,-3.1475,0,0,0,0,0,0,-3.1218,-3.1223,-3.1291,-3.1293,-3.124,-3.1265,-3.1269,-3.1286,-3.1301,-3.1302,-3.1282,-3.1279,-3.1313,-3.1317,-3.1321,-3.1385,-3.1328,-3.1331,-3.1332,-3.1471,-3.1473,-3.1475,0,0,0,0,0,0,-3.1216,-3.1224,-3.129,-3.1258,-3.1266,-3.1269,-3.1289,-3.1288,-3.1299,-3.1304,-3.1304,-3.1293,-3.1311,-3.1317,-3.1359,-3.1386,-3.1332,-3.1335,-3.1468,-3.1472,-3.1474,-3.1515,0,0,0,0,0,0,-3.1213,-3.1224,-3.1245,-3.1259,-3.1267,-3.1327,-3.1291,-3.129,-3.1305,-3.1301,-3.1315,-3.1315,-3.131,-3.1354,-3.1362,-3.1389,-3.1337,-3.1466,-3.147,-3.1473,-3.1511,-3.1519,-3.1526,0,0,0,0,0,-3.121,-3.1254,-3.1246,-3.1254,-3.1294,-3.1329,-3.1334,-3.1328,-3.1307,-3.1328,-3.1332,-3.1315,-3.1383,-3.1359,-3.1367,-3.1396,-3.1464,-3.1469,-3.1473,-3.1508,-3.1517,-3.1526,0,0,0,0,0,0,-3.1242,-3.1256,-3.1247,-3.1297,-3.1312,-3.1324,-3.135,-3.1339,-3.1359,-3.1355,-3.1346,-3.1349,-3.1393,-3.1399,-3.1372,-3.145,-3.142,-3.1426,-3.1444,-3.1453,-3.146,-3.1456,-3.134,0,0,0,0,0,-3.1256,-3.1284,-3.1294,-3.1337,-3.1345,-3.1347,-3.1362,-3.1356,-3.1371,-3.1377,-3.1383,-3.1398,-3.1422,-3.1438,-3.1461,-3.1513,-3.1515,-3.1537,-3.1544,-3.155,-3.1555,-3.1582,-3.1591,-3.149,-3.149,-3.149,0,0,-3.1282,-3.1293,-3.1311,-3.1344,-3.1355,-3.1383,-3.1352,-3.1383,-3.1404,-3.1381,-3.1421,-3.1427,-3.1442,-3.1489,-3.151,-3.1495,-3.1584,-3.1556,-3.1561,-3.1562,-3.1587,-3.1597,-3.1605,-3.1493,-3.1493,-3.1492,0,0,-3.1345,-3.1357,-3.1394,-3.1407,-3.1425,-3.1425,-3.1435,-3.1449,-3.1452,-3.1492,-3.1476,-3.15,-3.1542,-3.1554,-3.1565,-3.1635,-3.162,-3.1643,-3.168,-3.1706,-3.1714,-3.1721,-3.1744,-3.1752,-3.1648,-3.1648,-3.1648,0,-3.1375,-3.1418,-3.1414,-3.1447,-3.1461,-3.1445,-3.1481,-3.1493,-3.1517,-3.1527,-3.1511,-3.1564,-3.1574,-3.1622,-3.164,-3.165,-3.1659,-3.164,-3.1713,-3.172,-3.1727,-3.1748,-3.1757,-3.1651,-3.165,-3.165,-3.165,0,-3.1454,-3.1484,-3.1512,-3.1537,-3.1555,-3.159,-3.159,-3.1609,-3.1602,-3.1605,-3.1646,-3.1657,-3.1681,-3.1693,-3.1687,-3.1742,-3.1732,-3.1715,-3.1684,-3.1739,-3.1759,-3.1768,-3.1654,-3.1653,-3.1653,-3.1652,0,0,-3.1535,-3.1559,-3.1569,-3.158,-3.16,-3.1622,-3.1657,-3.1682,-3.1697,-3.1715,-3.1742,-3.178,-3.1765,-3.1778,-3.1773,-3.1797,-3.1849,-3.1777,-3.1777,-3.1788,-3.1908,-3.1919,-3.1929,-3.1841,-3.1843,-3.1844,-3.1906,0,-3.1597,-3.1657,-3.1655,-3.171,-3.1737,-3.1723,-3.1752,-3.1767,-3.1771,-3.1794,-3.1798,-3.1824,-3.1803,-3.1811,-3.1834,-3.1838,-3.1873,-3.1834,-3.1864,-3.1865,-3.1858,-3.1939,-3.1951,-3.2009,-3.1914,-3.1916,-3.1917,0,-3.1676,-3.1698,-3.1756,-3.1773,-3.1784,-3.1811,-3.1834,-3.1857,-3.1873,-3.1874,-3.189,-3.1882,-3.1916,-3.1887,-3.1932,-3.1906,-3.1919,-3.1923,-3.1925,-3.1925,-3.1892,-3.1939,-3.2027,-3.2035,-3.1929,-3.1928,-3.1928,0,-3.1727,-3.1771,-3.1811,-3.1822,-3.1842,-3.1861,-3.187,-3.1885,-3.1901,-3.1921,-3.1931,-3.1955,-3.1967,-3.1986,-3.1984,-3.1964,-3.203,-3.2001,-3.203,-3.203,-3.2042,-3.204,-3.213,-3.2055,-3.2055,-3.2055,-3.2054,0,-3.1794,-3.183,-3.1834,-3.1859,-3.1898,-3.1897,-3.1935,-3.1943,-3.1957,-3.1981,-3.1971,-3.1995,-3.1992,-3.2016,-3.2015,-3.2052,-3.2058,-3.2059,-3.2058,-3.2058,-3.2058,-3.2064,-3.2059,-3.2057,-3.2056,-3.2056,-3.2056,0,-3.1856,-3.1861,-3.1903,-3.192,-3.1925,-3.1953,-3.1967,-3.199,-3.1994,-3.2026,-3.2033,-3.2039,-3.2067,-3.2068,-3.2099,-3.2098,-3.2143,-3.2138,-3.2137,-3.2135,-3.2163,-3.216,-3.2258,-3.227,-3.2189,-3.219,-3.2191,0,-3.1897,-3.1925,-3.1945,-3.1961,-3.1972,-3.1999,-3.2015,-3.2015,-3.2032,-3.2054,-3.2074,-3.2101,-3.2122,-3.2166,-3.2173,-3.2196,-3.2191,-3.2224,-3.2194,-3.2194,-3.2189,-3.2186,-3.2188,-3.2229,-3.2229,-3.223,-3.2231,0,-3.197,-3.1971,-3.1995,-3.2021,-3.2041,-3.2061,-3.208,-3.2094,-3.2096,-3.2115,-3.2144,-3.2161,-3.2193,-3.2219,-3.2243,-3.2251,-3.2241,-3.2241,-3.2248,-3.2247,-3.2245,-3.2244,-3.215,-3.2238,-3.2237,-3.2236,-3.2236,-3.2236,-3.2021,-3.2044,-3.2062,-3.209,-3.2104,-3.2122,-3.2144,-3.2152,-3.2176,-3.2203,-3.2202,-3.2233,-3.225,-3.2281,-3.2291,-3.2315,-3.2303,-3.2315,-3.2317,-3.2319,-3.2321,-3.2244,-3.232,-3.2319,-3.2319,-3.2319,-3.2319,0,-3.209,-3.2102,-3.2128,-3.2155,-3.2176,-3.2168,-3.2188,-3.2206,-3.2234,-3.2251,-3.2273,-3.2305,-3.2331,-3.2341,-3.2365,-3.2382,-3.2378,-3.2389,-3.2386,-3.2388,-3.2331,-3.2321,-3.2392,-3.2392,-3.2392,-3.2392,-3.2392,-3.2392,-3.2129,-3.2168,-3.2172,-3.2218,-3.2229,-3.226,-3.2272,-3.2289,-3.2302,-3.2339,-3.2361,-3.2368,-3.2382,-3.2408,-3.2431,-3.2433,-3.2441,-3.2453,-3.2453,-3.2399,-3.2392,-3.2385,-3.2375,-3.2456,-3.2456,-3.2507,-3.2508,-3.2508]},{"header":{"parameterUnit":"m.s-1","parameterCategory":1,"la1":30.2991,"la2":30.254,"lo1":-89.0895,"lo2":-89.0444,"dy":0.0017,"dx":0.0017,"nx":28,"ny":28,"refTime":"2024-03-31T21:00:00:Z","depth":0,"parameterNumber":3,"parameterNumberName":"V-component_of_WINDS"},"data":[0,0,0,0,0,0,0,0,0,0,0,0,0,0,0,0,0,0,0,0,0,0,0,0,0,0,0,0,0,0,0,0,0,0,0,0,0,0,0,0,0,0,0,0,0,0,0,0,0,0,0,0,0,0,0,0,0,0,3.0524,3.0525,0,3.0595,3.0596,3.0597,3.0645,3.0646,3.0646,3.0646,3.0717,3.0718,3.072,0,0,0,0,0,0,0,0,0,0,0,0,0,3.0428,3.0429,3.0524,3.0525,3.0526,3.0595,3.0596,3.0597,3.0645,3.0646,3.0646,3.0646,3.0716,3.0718,3.072,0,0,0,0,0,0,0,0,0,0,0,0,0,3.0481,3.043,3.0524,3.0558,3.0562,3.0595,3.0596,3.0598,3.0645,3.0646,3.0646,3.0647,3.0716,3.0718,3.072,3.0724,0,0,3.0728,3.0729,0,0,0,0,0,0,0,0,3.0478,3.0485,3.0552,3.0556,3.056,3.0612,3.0589,3.064,3.0645,3.0613,3.0646,3.0647,3.0681,3.0687,3.0699,3.0728,3.0731,3.0728,3.0729,3.073,3.0731,0,0,0,0,0,0,0,3.0475,3.0482,3.0552,3.0553,3.0558,3.057,3.0578,3.0599,3.0643,3.0616,3.062,3.0628,3.0684,3.0696,3.0701,3.0732,3.0728,3.073,3.0731,3.0732,3.0771,3.0771,0,0,0,0,0,0,3.0466,3.0479,3.055,3.0554,3.052,3.0571,3.058,3.0595,3.0643,3.0651,3.0627,3.063,3.0692,3.0698,3.0704,3.0714,3.073,3.0732,3.0734,3.0772,3.0771,3.0771,0,0,0,0,0,0,3.0463,3.0472,3.0547,3.0518,3.0528,3.0572,3.0588,3.0596,3.0609,3.0652,3.066,3.0632,3.0693,3.07,3.072,3.0717,3.0733,3.0736,3.0772,3.0772,3.0771,3.0733,0,0,0,0,0,0,3.046,3.047,3.0472,3.0517,3.0529,3.0562,3.0588,3.0597,3.0613,3.0617,3.0659,3.0666,3.0694,3.0716,3.0722,3.072,3.0737,3.0773,3.0772,3.0771,3.0735,3.0731,3.0728,0,0,0,0,0,3.0457,3.0457,3.0472,3.048,3.0533,3.0562,3.0569,3.0601,3.0612,3.0615,3.0643,3.0665,3.0716,3.0718,3.0725,3.0724,3.0773,3.0772,3.0771,3.0736,3.0732,3.0728,0,0,0,0,0,0,3.0409,3.0464,3.0481,3.0496,3.0524,3.057,3.0574,3.0595,3.062,3.0622,3.0662,3.0671,3.0687,3.0707,3.0708,3.0732,3.0747,3.0748,3.0718,3.0714,3.0711,3.0706,3.0739,0,0,0,0,0,3.0401,3.042,3.0466,3.0475,3.0489,3.0529,3.0542,3.0566,3.0596,3.0608,3.0637,3.0665,3.0689,3.0702,3.0726,3.0738,3.0749,3.0741,3.0738,3.0735,3.0735,3.0746,3.0743,3.0768,3.0768,3.0768,0,0,3.0382,3.0415,3.0424,3.0467,3.0491,3.0511,3.0538,3.0557,3.0572,3.061,3.0632,3.0654,3.0689,3.0705,3.0714,3.0723,3.0731,3.0734,3.0731,3.0733,3.0745,3.0742,3.074,3.0768,3.0768,3.0768,0,0,3.036,3.0386,3.0398,3.0422,3.046,3.0487,3.049,3.0533,3.0551,3.0573,3.0603,3.0621,3.0659,3.0683,3.07,3.0691,3.0712,3.0697,3.068,3.069,3.0688,3.0687,3.0685,3.0684,3.0697,3.0697,3.0697,0,3.0333,3.0364,3.04,3.0419,3.0437,3.0475,3.0487,3.0509,3.0552,3.0564,3.0573,3.0624,3.065,3.0674,3.0672,3.0684,3.0689,3.0692,3.0686,3.0684,3.0684,3.0682,3.0681,3.0695,3.0695,3.0695,3.0696,0,3.033,3.0351,3.0356,3.0398,3.0417,3.0432,3.0472,3.0486,3.0509,3.0535,3.0558,3.0591,3.0623,3.063,3.0651,3.0658,3.0663,3.0678,3.0694,3.0679,3.0678,3.0678,3.0692,3.0693,3.0693,3.0694,0,0,3.0277,3.0342,3.0344,3.0365,3.041,3.0427,3.0445,3.0478,3.0491,3.0519,3.0536,3.0569,3.0585,3.0604,3.0628,3.0637,3.063,3.0652,3.0654,3.0648,3.0642,3.0631,3.063,3.0645,3.0645,3.0645,3.064,0,3.0263,3.0297,3.0332,3.0354,3.0376,3.0413,3.0429,3.0459,3.0484,3.0506,3.0534,3.0558,3.0576,3.0589,3.0599,3.0629,3.063,3.0629,3.0661,3.0662,3.0652,3.0629,3.0617,3.0611,3.064,3.064,3.064,0,3.025,3.028,3.0305,3.0351,3.0361,3.0375,3.0409,3.0429,3.0465,3.0483,3.0506,3.0533,3.0554,3.0568,3.0599,3.0598,3.0613,3.063,3.0631,3.0635,3.065,3.0634,3.0609,3.0609,3.064,3.064,3.064,0,3.0212,3.0258,3.0279,3.0296,3.035,3.0359,3.0382,3.0418,3.0437,3.0466,3.0479,3.051,3.0527,3.0551,3.0586,3.0593,3.0614,3.063,3.063,3.0629,3.0633,3.0632,3.0611,3.0641,3.0641,3.0641,3.0641,0,3.0193,3.0207,3.0263,3.0276,3.0294,3.0334,3.0351,3.0377,3.0409,3.0429,3.0462,3.048,3.0524,3.0547,3.0574,3.0597,3.0604,3.062,3.0627,3.0617,3.0616,3.0628,3.063,3.0641,3.0641,3.0641,3.0641,0,3.0153,3.0191,3.0218,3.0268,3.0281,3.0292,3.0335,3.035,3.0378,3.0403,3.0411,3.0455,3.0484,3.0522,3.0562,3.058,3.06,3.0611,3.0589,3.0593,3.0592,3.0592,3.0578,3.0579,3.0607,3.0607,3.0607,0,3.0139,3.0151,3.0203,3.0219,3.0242,3.0267,3.0287,3.0327,3.0347,3.039,3.04,3.0432,3.046,3.0505,3.0541,3.0572,3.0584,3.0578,3.0589,3.058,3.0586,3.0585,3.0588,3.0575,3.0574,3.0574,3.0573,0,3.011,3.0129,3.0156,3.0191,3.0214,3.0243,3.0274,3.0285,3.0332,3.0352,3.0384,3.0405,3.0448,3.048,3.0517,3.0541,3.0565,3.057,3.0572,3.0562,3.055,3.0558,3.0582,3.057,3.057,3.057,3.0571,3.0571,3.0083,3.0097,3.0137,3.0167,3.0195,3.0223,3.0241,3.0273,3.03,3.0338,3.0361,3.0392,3.0429,3.0482,3.0505,3.053,3.0539,3.0541,3.0542,3.0542,3.054,3.0545,3.0537,3.0537,3.0537,3.0537,3.0537,0,3.0058,3.0086,3.0113,3.0156,3.0181,3.0203,3.0239,3.0257,3.0285,3.0318,3.0346,3.0383,3.0415,3.0454,3.0489,3.0502,3.0514,3.0509,3.0509,3.0515,3.0529,3.0525,3.0499,3.0499,3.0499,3.0499,3.0499,3.0499,3.0047,3.0072,3.0096,3.0136,3.0164,3.0196,3.0215,3.0242,3.0269,3.0309,3.0336,3.0362,3.0399,3.0437,3.0468,3.0479,3.0491,3.0483,3.0497,3.051,3.0513,3.0516,3.0513,3.0485,3.0485,3.0481,3.0481,3.0481]}]]